Regional Weather Roundup
Issued by NWS

Home | Current Version | Previous Version | Text Only | Print | Product List | Glossary On
Versions: 1 2 3 4 5 6 7 8 9 10 11 12 13 14 15 16 17 18 19 20 21 22 23 24 25 26 27 28 29 30 31 32 33 34 35 36 37 38 39 40 41 42 43 44 45 46 47 48 49 50
000
ASUS44 KFWD 241410
RWRTX
NORTH TEXAS HOURLY WEATHER ROUNDUP
NATIONAL WEATHER SERVICE FORT WORTH TX
900 AM CDT TUE MAY 24 2016

NOTE: "FAIR" INDICATES FEW OR NO CLOUDS BELOW 12,000 FEET WITH NO
SIGNIFICANT WEATHER AND/OR OBSTRUCTIONS TO VISIBILITY.

TXZ118-119-241500-
DALLAS/FORT WORTH METROPLEX

CITY           SKY/WX    TMP DP  RH WIND       PRES   REMARKS
DFW AIRPORT    CLOUDY    75  71  87 SE7       29.96R FOG
DALLAS LOVE    PTSUNNY   75  72  90 SE8       29.96S
FTW MEACHAM    CLOUDY    76  70  82 SE8       29.95R
DAL-EXECUTIVE  CLOUDY    74  70  87 SE6       29.96S
FTW-ALLIANCE   CLOUDY    74  70  87 SE9       29.95R
FTW-NAS-JRB    CLOUDY    76  71  85 SE6       29.95R
FTW-SPINKS     CLOUDY    75  72  88 SE7       29.97R FOG
ARLINGTON      CLOUDY    77  71  82 SE6       29.96R
GRAND PRAIRIE  LGT RAIN  73  73 100 E3        29.98R
ADDISON        CLOUDY    73  73 100 MISG      29.97S
MESQUITE       CLOUDY    73  72  94 E6        29.98R
LANCASTER      CLOUDY    73  68  86 E5        29.98R
$$

TXZ091>094-102>105-117-120-121-131>134-241500-
NORTH CENTRAL TEXAS

CITY           SKY/WX    TMP DP  RH WIND       PRES   REMARKS
SHRMAN/DENISON CLOUDY    70  63  78 S9        29.97S
GAINESVILLE    CLOUDY    71  68  90 SE8       29.97R
BOWIE          CLOUDY    74  69  85 SE5       29.93S
DECATUR        MOSUNNY   75  71  87 SE13      29.95S
DENTON         CLOUDY    74  71  91 SE13      29.95R
MCKINNEY       CLOUDY    74  71  91 SE5       29.97S
GREENVILLE     CLOUDY    73  70  88 SE5       29.99S
ROCKWALL       CLOUDY    74  71  92 SE10      29.97S
TERRELL        CLOUDY    74  71  91 E6        29.99R
WAXAHACHIE     CLOUDY    73  73  98 SE3       29.98R
CLEBURNE       CLOUDY    75  75 100 SE9       29.98R
GRANBURY       CLOUDY    77  71  82 SE8       29.96R
$$

TXZ083>090-098>101-113>116-127>130-139>142-154-155-241500-
WESTERN NORTH TEXAS

CITY           SKY/WX    TMP DP  RH WIND       PRES   REMARKS
WICHITA FALLS  SUNNY     76  70  82 SE13      29.89S
WF-KICKAPOO    SUNNY     78  70  77 S17G24    29.90S
VERNON         SUNNY     76  68  78 S9        29.89R
ABILENE        CLOUDY    74  70  87 SE15      29.93R
ABILENE-DYESS  CLOUDY    75  64  69 SE13      29.90R
BRECKENRIDGE   PTSUNNY   78  69  75 SE14G20   29.92R HAZE
GRAHAM         SUNNY     78  72  81 SE10G16   29.90R
MINERAL WELLS  MOSUNNY   78  71  79 S13       29.92R
STEPHENVILLE   CLOUDY    73  70  88 S5        29.99R
COMANCHE       RAIN      73  73 100 SE6       29.97R
BROWNWOOD      CLOUDY    75  70  83 SE10      29.95R
COLEMAN        CLOUDY    74  68  81 S14G20    29.95R
$$

TXZ143>147-156>162-174-175-241500-
CENTRAL TEXAS

CITY           SKY/WX    TMP DP  RH WIND       PRES   REMARKS
WACO           CLOUDY    77  71  82 S10       29.96R
WACO-TSTC      CLOUDY    77  72  83 S9        29.96R
WACO-MCGREGOR  CLOUDY    77  73  88 S12       29.96
HILLSBORO      CLOUDY    74  71  88 SE9       29.97R
CORSICANA      CLOUDY    76  70  82 SE9       29.99R
MEXIA          CLOUDY    74  72  94 SE6       29.97R
HEARNE         CLOUDY    75  73  93 SE7       29.97R
CAMERON        CLOUDY    77  73  87 S6        29.95R
TEMPLE         CLOUDY    76  72  87 S13       29.96R
KILLEEN        CLOUDY    76  71  85 S10       29.95R
KILLEEN-SKYLRK CLOUDY    77  72  84 S10       29.95S
FORT HOOD      CLOUDY    75  72  88 S8        29.93S
GATESVILLE     PTSUNNY   75  70  83 S6        29.99R
HAMILTON       CLOUDY    76  71  84 S13G18    29.98R
LAMPASAS       PTSUNNY   77  72  86 S8        29.96R
$$

TXZ095>097-106>112-122>126-135>138-148>153-164>167-241500-
EAST TEXAS

CITY           SKY/WX    TMP DP  RH WIND       PRES   REMARKS
PARIS          CLOUDY    72  63  73 S5        30.00F
SULPHUR SPRNGS CLOUDY    74  70  87 S5        30.02S
MOUNT PLEASANT PTSUNNY   73  70  89 S3        30.03R
GILMER         CLOUDY    74  69  85 S5        30.01R
MINEOLA        CLOUDY    73  70  88 S5        30.01R
TYLER          CLOUDY    75  69  81 S8        29.99R
LONGVIEW       PTSUNNY   75  70  84 SE8       30.00R
MARSHALL       CLOUDY    74  69  83 S6        30.04R
ATHENS         CLOUDY    72  72 100 S7        29.99R
PALESTINE      CLOUDY    74  71  89 SE7       29.99R
JACKSONVILLE   CLOUDY    71  70  96 SE6       30.02R
HENDERSON      CLOUDY    74  70  85 S8        30.01R
CENTER         CLOUDY    77  73  89 SE7       30.02R
NACOGDOCHES    CLOUDY    73  72  94 S8        30.00R
LUFKIN         CLOUDY    74  71  91 SE9       29.99R
$$

SUPPLEMENTAL OBSERVATIONS (CENTRAL)

CITY           SKY/WX    TMP DP  RH WIND       PRES   REMARKS
PAT MAYSE LAKE   N/A     72  70  94 E9          N/A
GREENVILLE       N/A     73  70  88 SE5         N/A
MCGREGOR         N/A     75  70  83 S10         N/A
TEMPLE           N/A     77  72  83 S10         N/A
$$

SUPPLEMENTAL OBSERVATIONS (WEST)

CITY           SKY/WX    TMP DP  RH WIND       PRES   REMARKS
POSSUM KINGDOM   N/A     75  70  83 SE9         N/A
GRANBURY         N/A     75  70  83 SE10        N/A
HAMBY            N/A     75  68  78 SE9         N/A
$$

SUPPLEMENTAL OBSERVATIONS (EAST)

CITY           SKY/WX    TMP DP  RH WIND       PRES   REMARKS
TEXARKANA        N/A     75  68  78 S5          N/A
LINDEN           N/A     75  68  78 S5          N/A
GILMER           N/A     75  68  78 S8          N/A
HENDERSON        N/A     75  70  83 SE6         N/A
LUFKIN           N/A     75  70  83 MISG        N/A
N SABINE NF      N/A     75  72  88 MISG        N/A
$$

SUPPLEMENTAL OBSERVATIONS ARE A COLLECTION OF AUTOMATED INSTRUMENTS
THAT ARE MAINTAINED BY A VARIETY OF FEDERAL AND STATE AGENCIES.
CERTAIN ELEMENTS...SUCH AS HUMIDITY VALUES AND SUSTAINED WIND
SPEEDS...MAY BE APPROXIMATED.




USA.gov is the U.S. government's official web portal to all federal, state and local government web resources and services.